TimeEST,TemperatureF,Dew PointF,Humidity,Sea Level PressureIn,VisibilityMPH,Wind Direction,Wind SpeedMPH,Gust SpeedMPH,PrecipitationIn,Events,Conditions,WindDirDegrees,DateUTC
12:13 AM,1.4,-0.4,92,30.18,8.0,East,4.6,-,0.00,Snow,Light Snow,90,2013-12-17 05:13:00
12:54 AM,1.9,-0.9,88,30.19,9.0,East,6.9,-,0.00,Snow,Light Snow,90,2013-12-17 05:54:00
1:54 AM,3.0,-2.0,80,30.18,8.0,East,4.6,-,0.00,Snow,Light Snow,90,2013-12-17 06:54:00
2:54 AM,-0.9,-4.0,87,30.16,10.0,ENE,5.8,-,0.00,,Partly Cloudy,70,2013-12-17 07:54:00
3:54 AM,-0.9,-4.0,87,30.16,10.0,East,4.6,-,N/A,,Partly Cloudy,90,2013-12-17 08:54:00
4:54 AM,-0.0,-4.0,83,30.12,10.0,East,6.9,-,N/A,,Mostly Cloudy,90,2013-12-17 09:54:00
5:54 AM,1.9,-2.9,80,30.10,10.0,ENE,9.2,-,N/A,,Overcast,60,2013-12-17 10:54:00
6:45 AM,3.2,-0.4,85,30.08,2.0,East,6.9,-,0.00,Snow,Light Snow,80,2013-12-17 11:45:00
6:48 AM,3.2,-0.4,85,30.07,1.5,East,8.1,-,0.00,Snow,Light Snow,80,2013-12-17 11:48:00
6:54 AM,3.9,-0.0,84,30.08,1.0,East,5.8,-,0.01,Snow,Light Snow,80,2013-12-17 11:54:00
6:59 AM,3.2,1.4,92,30.06,1.0,East,5.8,-,0.00,Snow,Light Snow,80,2013-12-17 11:59:00
7:08 AM,5.0,1.4,85,30.06,0.8,East,6.9,-,0.00,Snow,Light Snow,80,2013-12-17 12:08:00
7:54 AM,6.1,3.0,87,30.06,0.5,East,8.1,-,0.04,Fog-Snow,Snow,90,2013-12-17 12:54:00
8:33 AM,8.6,3.2,79,30.02,0.5,ENE,10.4,-,0.03,Fog-Snow,Snow,60,2013-12-17 13:33:00
8:45 AM,8.6,5.0,85,30.02,0.8,ENE,10.4,-,0.03,Snow,Light Snow,70,2013-12-17 13:45:00
8:54 AM,9.0,5.0,84,30.04,0.8,ENE,10.4,-,0.04,Snow,Light Snow,70,2013-12-17 13:54:00
9:16 AM,8.6,6.8,92,30.02,0.8,ENE,9.2,-,0.00,Snow,Light Snow,70,2013-12-17 14:16:00
9:29 AM,10.4,6.8,85,30.01,3.0,East,8.1,-,0.00,Snow,Light Snow,80,2013-12-17 14:29:00
9:54 AM,10.9,8.1,88,30.02,1.5,East,8.1,-,0.01,Snow,Light Snow,80,2013-12-17 14:54:00
10:35 AM,12.2,8.6,85,30.00,1.5,ENE,6.9,-,0.01,Snow,Light Snow,70,2013-12-17 15:35:00
10:51 AM,12.2,8.6,85,30.00,2.0,East,5.8,-,0.01,Snow,Light Snow,80,2013-12-17 15:51:00
10:54 AM,12.0,9.0,88,30.02,2.5,ENE,4.6,-,0.02,Snow,Light Snow,70,2013-12-17 15:54:00
11:11 AM,12.2,10.4,92,29.99,1.2,East,5.8,-,0.01,Snow,Light Snow,80,2013-12-17 16:11:00
11:18 AM,12.2,10.4,92,29.99,0.8,East,8.1,-,0.01,Snow,Light Snow,80,2013-12-17 16:18:00
11:43 AM,12.2,10.4,92,29.97,1.0,East,8.1,-,0.03,Snow,Light Snow,80,2013-12-17 16:43:00
11:54 AM,12.9,10.0,88,29.99,1.0,ENE,8.1,-,0.03,Snow,Light Snow,70,2013-12-17 16:54:00
12:54 PM,14.0,10.0,84,29.96,1.0,ENE,8.1,-,0.01,Snow,Light Snow,60,2013-12-17 17:54:00
1:11 PM,14.0,10.4,86,29.93,5.0,ENE,6.9,-,0.01,Snow,Light Snow,60,2013-12-17 18:11:00
1:50 PM,15.8,12.2,86,29.93,10.0,ENE,5.8,-,0.01,,Overcast,70,2013-12-17 18:50:00
1:54 PM,15.1,10.9,84,29.95,10.0,ENE,5.8,-,0.01,,Overcast,70,2013-12-17 18:54:00
2:22 PM,15.8,12.2,86,29.94,10.0,East,5.8,-,N/A,,Overcast,90,2013-12-17 19:22:00
2:54 PM,16.0,12.0,84,29.96,10.0,East,4.6,-,N/A,,Overcast,80,2013-12-17 19:54:00
3:54 PM,17.1,12.0,81,29.96,10.0,NNE,4.6,-,N/A,,Overcast,20,2013-12-17 20:54:00
4:54 PM,16.0,12.0,84,29.98,9.0,Calm,Calm,-,0.00,Snow,Light Snow,0,2013-12-17 21:54:00
5:54 PM,17.1,12.0,81,29.99,9.0,Calm,Calm,-,0.00,,Overcast,0,2013-12-17 22:54:00
6:16 PM,15.8,12.2,86,29.97,10.0,ESE,3.5,-,N/A,,Overcast,110,2013-12-17 23:16:00
6:50 PM,17.6,12.2,79,29.98,10.0,Calm,Calm,-,N/A,,Overcast,0,2013-12-17 23:50:00
6:54 PM,17.1,12.0,81,29.99,10.0,Calm,Calm,-,N/A,,Overcast,0,2013-12-17 23:54:00
7:06 PM,17.6,12.2,79,29.98,10.0,Calm,Calm,-,N/A,,Overcast,0,2013-12-18 00:06:00
7:54 PM,18.0,12.9,81,29.99,10.0,ESE,5.8,-,N/A,,Overcast,110,2013-12-18 00:54:00
8:33 PM,17.6,12.2,79,29.97,10.0,ESE,4.6,-,N/A,,Overcast,110,2013-12-18 01:33:00
8:54 PM,18.0,14.0,84,29.99,10.0,Calm,Calm,-,N/A,,Overcast,0,2013-12-18 01:54:00
9:15 PM,17.6,14.0,86,29.97,10.0,NE,3.5,-,N/A,,Overcast,50,2013-12-18 02:15:00
9:54 PM,17.1,14.0,88,29.99,10.0,East,4.6,-,N/A,,Overcast,80,2013-12-18 02:54:00
10:54 PM,16.0,12.0,84,29.98,9.0,East,4.6,-,0.00,,Mostly Cloudy,100,2013-12-18 03:54:00
11:54 PM,17.1,12.9,84,29.97,8.0,ENE,3.5,-,0.00,Snow,Light Snow,70,2013-12-18 04:54:00